TimeEST,TemperatureF,Dew PointF,Humidity,Sea Level PressureIn,VisibilityMPH,Wind Direction,Wind SpeedMPH,Gust SpeedMPH,PrecipitationIn,Events,Conditions,WindDirDegrees,DateUTC
12:53 AM,36.0,26.1,67,30.10,10.0,SW,5.8,-,N/A,,Overcast,220,2013-01-01 05:53:00
1:50 AM,33.8,28.4,81,30.08,2.5,SW,10.4,-,0.00,Snow,Light Snow,230,2013-01-01 06:50:00
1:53 AM,34.0,28.9,82,30.10,2.5,SW,9.2,-,0.00,Snow,Light Snow,220,2013-01-01 06:53:00
2:41 AM,33.8,30.2,87,30.08,3.0,South,8.1,-,0.01,Snow,Light Snow,190,2013-01-01 07:41:00
2:53 AM,33.1,30.0,89,30.10,4.0,South,6.9,-,0.01,,Overcast,190,2013-01-01 07:53:00
3:11 AM,33.8,30.2,87,30.08,3.0,SSW,8.1,-,0.00,Snow,Light Snow,200,2013-01-01 08:11:00
3:18 AM,32.0,30.2,93,30.08,2.0,South,6.9,-,0.00,Snow,Light Snow,190,2013-01-01 08:18:00
3:23 AM,33.8,30.2,87,30.08,2.0,South,6.9,-,0.00,Snow,Light Snow,190,2013-01-01 08:23:00
3:53 AM,33.1,30.9,92,30.09,1.8,SSW,5.8,-,0.00,Snow,Light Snow,200,2013-01-01 08:53:00
4:06 AM,33.8,30.2,87,30.06,2.0,South,5.8,-,0.01,Snow,Light Snow,190,2013-01-01 09:06:00
4:23 AM,33.8,30.2,87,30.05,3.0,South,3.5,-,0.01,,Overcast,180,2013-01-01 09:23:00
4:53 AM,32.0,30.9,96,30.07,2.5,South,3.5,-,0.01,Snow,Light Snow,180,2013-01-01 09:53:00
5:42 AM,32.0,30.2,93,30.05,1.8,Calm,Calm,-,0.00,Snow,Light Snow,0,2013-01-01 10:42:00
5:44 AM,32.0,30.2,93,30.05,2.0,Calm,Calm,-,0.00,Snow,Light Snow,0,2013-01-01 10:44:00
5:53 AM,32.0,30.9,96,30.07,2.5,Calm,Calm,-,0.00,Snow,Light Snow,0,2013-01-01 10:53:00
6:53 AM,33.1,30.9,92,30.09,2.5,Calm,Calm,-,0.01,Snow,Light Snow,0,2013-01-01 11:53:00
7:03 AM,33.8,30.2,87,30.07,0.5,Calm,Calm,-,0.00,Fog-Snow,Light Snow,0,2013-01-01 12:03:00
7:53 AM,32.0,30.9,96,30.09,0.5,Calm,Calm,-,0.01,Fog-Snow,Light Snow,0,2013-01-01 12:53:00
7:57 AM,32.0,30.2,93,30.06,2.0,Calm,Calm,-,0.00,Snow,Light Snow,0,2013-01-01 12:57:00
8:06 AM,32.0,30.2,93,30.07,1.5,WSW,3.5,-,0.00,Snow,Light Snow,240,2013-01-01 13:06:00
8:27 AM,33.8,30.2,87,30.07,2.5,Variable,3.5,-,0.00,,Overcast,0,2013-01-01 13:27:00
8:35 AM,33.8,30.2,87,30.07,4.0,West,3.5,-,0.00,,Overcast,260,2013-01-01 13:35:00
8:53 AM,33.1,30.9,92,30.10,4.0,West,3.5,-,0.00,,Overcast,260,2013-01-01 13:53:00
9:29 AM,33.8,30.2,87,30.07,5.0,Variable,3.5,-,N/A,,Overcast,0,2013-01-01 14:29:00
9:53 AM,33.1,32.0,96,30.10,5.0,Calm,Calm,-,N/A,,Overcast,0,2013-01-01 14:53:00
10:53 AM,34.0,30.9,89,30.10,8.0,WNW,6.9,-,N/A,,Overcast,290,2013-01-01 15:53:00
11:53 AM,34.0,30.9,89,30.08,9.0,West,3.5,-,N/A,,Overcast,280,2013-01-01 16:53:00
12:53 PM,34.0,30.0,85,30.07,7.0,West,4.6,-,N/A,,Overcast,280,2013-01-01 17:53:00
1:53 PM,35.1,30.0,82,30.05,8.0,WNW,5.8,-,N/A,,Overcast,290,2013-01-01 18:53:00
2:18 PM,33.8,30.2,87,30.01,8.0,WNW,3.5,-,N/A,,Overcast,290,2013-01-01 19:18:00
2:44 PM,33.8,28.4,81,30.04,9.0,West,5.8,-,N/A,,Overcast,280,2013-01-01 19:44:00
2:53 PM,34.0,28.9,82,30.06,10.0,West,4.6,-,N/A,,Overcast,270,2013-01-01 19:53:00
3:53 PM,34.0,28.9,82,30.07,8.0,Variable,3.5,-,N/A,,Overcast,0,2013-01-01 20:53:00
4:53 PM,33.1,28.0,82,30.09,6.0,NW,3.5,-,N/A,,Haze,320,2013-01-01 21:53:00
5:53 PM,32.0,27.0,82,30.09,6.0,NW,3.5,-,N/A,,Haze,320,2013-01-01 22:53:00
6:53 PM,32.0,27.0,82,30.10,6.0,NNW,3.5,-,N/A,,Haze,340,2013-01-01 23:53:00
7:46 PM,30.2,24.8,80,30.09,7.0,North,4.6,-,N/A,,Partly Cloudy,350,2013-01-02 00:46:00
7:53 PM,30.9,24.1,76,30.12,7.0,NNW,5.8,-,N/A,,Scattered Clouds,340,2013-01-02 00:53:00
8:17 PM,30.2,24.8,80,30.08,7.0,North,4.6,-,N/A,,Overcast,360,2013-01-02 01:17:00
8:53 PM,30.9,24.1,76,30.12,7.0,WNW,3.5,-,N/A,,Overcast,300,2013-01-02 01:53:00
9:53 PM,28.9,21.0,72,30.12,8.0,NW,5.8,-,N/A,,Overcast,320,2013-01-02 02:53:00
10:53 PM,28.0,21.0,75,30.14,8.0,NNW,5.8,-,N/A,,Overcast,330,2013-01-02 03:53:00
11:53 PM,26.1,18.0,71,30.15,10.0,NW,4.6,-,N/A,,Overcast,310,2013-01-02 04:53:00